WN4MDN Weather Reports


Display with metric or nautical units.
time (UTC)temp
F
wind
direction
speed
MPH
gust
MPH
rain 1hr
in
rain 24hr
in
rain mn
in
humidity
%
barometer
mb
20260902181034 84 120 4.0 8.0 0.00 0.00 0.00 75 1014.9
20260902180534 84 143 3.0 8.0 0.00 0.00 0.00 75 1015.0
20260902180104 84 98 3.0 6.0 0.00 0.00 0.00 76 1015.1
20260902175535 84 128 3.0 8.0 0.00 0.00 0.00 75 1015.1
20260902175036 84 130 4.0 8.0 0.00 0.00 0.00 77 1015.1
20260902174554 84 135 3.0 6.0 0.00 0.00 0.00 77 1015.2
20260902174038 84 136 4.0 7.0 0.00 0.00 0.00 75 1015.2
20260902173535 84 133 4.0 7.0 0.00 0.00 0.00 75 1015.2
20260902173102 84 146 3.0 6.0 0.00 0.00 0.00 75 1015.3
20260902172536 84 146 3.0 6.0 0.00 0.00 0.00 73 1015.4
20260902172035 84 121 3.0 6.0 0.00 0.00 0.00 73 1015.4
20260902171626 84 109 2.0 4.0 0.00 0.00 0.00 73 1015.4
20260902171035 84 112 2.0 4.0 0.00 0.00 0.00 73 1015.5
20260902170534 85 107 3.0 4.0 0.00 0.00 0.00 73 1015.6
20260902170059 85 109 2.0 4.0 0.00 0.00 0.00 73 1015.6
20260902165534 85 120 1.0 3.0 0.00 0.00 0.00 72 1015.6
20260902165034 85 119 2.0 3.0 0.00 0.00 0.00 71 1015.6
20260902164633 85 114 1.0 4.0 0.00 0.00 0.00 72 1015.8
20260902164035 85 96 1.0 6.0 0.00 0.00 0.00 71 1015.9
20260902163534 85 98 3.0 6.0 0.00 0.00 0.00 70 1015.9
20260902163057 86 98 3.0 6.0 0.00 0.00 0.00 71 1015.9
20260902162534 86 64 3.0 6.0 0.00 0.00 0.00 67 1015.9
20260902162034 86 95 1.0 2.0 0.00 0.00 0.00 68 1015.9
20260902161601 87 95 1.0 2.0 0.00 0.00 0.00 69 1015.8
20260902161034 87 81 0.0 2.0 0.00 0.00 0.00 67 1015.8
20260902160533 87 72 1.0 2.0 0.00 0.00 0.00 67 1016.0
20260902160055 87 222 0.0 3.0 0.00 0.00 0.00 67 1016.1
20260902155535 87 162 1.0 4.0 0.00 0.00 0.00 66 1016.2
20260902155035 87 103 1.0 4.0 0.00 0.00 0.00 67 1016.3
20260902154601 87 88 1.0 4.0 0.00 0.00 0.00 69 1016.3
20260902154038 86 0 0.0 4.0 0.00 0.00 0.00 67 1016.4
20260902153534 86 130 2.0 4.0 0.00 0.00 0.00 69 1016.4
20260902153058 86 95 2.0 3.0 0.00 0.00 0.00 69 1016.4
20260902152534 86 65 2.0 3.0 0.00 0.00 0.00 70 1016.3
20260902152036 86 119 1.0 3.0 0.00 0.00 0.00 71 1016.3
20260902151555 86 120 1.0 4.0 0.00 0.00 0.00 68 1016.2
20260902151035 86 86 1.0 4.0 0.00 0.00 0.00 69 1016.1
20260902150534 86 24 2.0 4.0 0.00 0.00 0.00 69 1016.1
20260902150058 86 82 2.0 4.0 0.00 0.00 0.00 69 1016.2
20260902145534 86 62 1.0 3.0 0.00 0.00 0.00 73 1016.3
20260902145034 85 27 1.0 6.0 0.00 0.00 0.00 72 1016.2
20260902144604 85 26 3.0 6.0 0.00 0.00 0.00 73 1016.2
20260902144035 85 335 2.0 5.0 0.00 0.00 0.00 77 1016.3
20260902143535 84 312 3.0 4.0 0.00 0.00 0.00 77 1016.3
20260902143057 83 360 1.0 5.0 0.00 0.00 0.00 76 1016.3
20260902142534 83 350 2.0 5.0 0.00 0.00 0.00 77 1016.3
20260902142037 83 42 2.0 5.0 0.00 0.00 0.00 79 1016.3
20260902141600 83 24 2.0 5.0 0.00 0.00 0.00 80 1016.3
20260902141034 83 40 4.0 5.0 0.00 0.00 0.00 81 1016.2
20260902140635 83 344 2.0 5.0 0.00 0.00 0.00 82 1016.1
20260902140054 82 73 2.0 5.0 0.00 0.00 0.00 83 1016.1
20260902135533 81 5 3.0 5.0 0.00 0.00 0.00 85 1016.0
20260902135036 81 5 2.0 5.0 0.00 0.00 0.00 86 1016.1
20260902134605 81 5 2.0 4.0 0.00 0.00 0.00 86 1016.0
20260902134037 80 352 1.0 3.0 0.00 0.00 0.00 88 1016.0
20260902133533 80 9 2.0 3.0 0.00 0.00 0.00 88 1016.0
20260902133055 80 5 1.0 3.0 0.00 0.00 0.00 89 1016.1
20260902132536 79 16 2.0 3.0 0.00 0.00 0.00 90 1016.1
20260902132035 79 28 2.0 3.0 0.00 0.00 0.00 90 1016.1
20260902131611 79 342 1.0 2.0 0.00 0.00 0.00 91 1016.1
20260902131035 78 344 1.0 3.0 0.00 0.00 0.00 92 1016.2
20260902130535 78 345 1.0 3.0 0.00 0.00 0.00 93 1016.0
20260902130059 78 352 1.0 3.0 0.00 0.00 0.00 93 1016.0
20260902125535 77 360 1.0 3.0 0.00 0.00 0.00 94 1016.0
20260902125034 77 346 2.0 4.0 0.00 0.00 0.00 95 1016.0
20260902124600 77 345 2.0 4.0 0.00 0.00 0.00 96 1016.0
20260902124034 76 31 2.0 3.0 0.00 0.00 0.00 96 1016.0
20260902123535 76 336 1.0 3.0 0.00 0.00 0.00 96 1015.9
20260902123054 75 335 1.0 2.0 0.00 0.00 0.00 96 1015.9
20260902122535 76 287 1.0 2.0 0.00 0.00 0.00 96 1015.9
20260902122036 75 287 1.0 2.0 0.00 0.00 0.00 96 1015.9
20260902121557 75 286 1.0 2.0 0.00 0.00 0.00 96 1015.9
20260902121035 75 287 0.0 2.0 0.00 0.00 0.00 96 1015.9
20260902120535 74 337 0.0 2.0 0.00 0.00 0.00 96 1015.8
20260902120052 74 339 0.0 2.0 0.00 0.00 0.00 96 1015.8
20260902115537 73 0 0.0 2.0 0.00 0.00 0.00 96 1015.8
20260902115035 73 0 0.0 2.0 0.00 0.00 0.00 96 1015.8
20260902114619 72 0 0.0 2.0 0.00 0.00 0.00 96 1015.8
20260902114039 72 0 0.0 2.0 0.00 0.00 0.00 96 1015.7
20260902113534 71 0 0.0 2.0 0.00 0.00 0.00 96 1015.7
20260902113057 71 0 0.0 2.0 0.00 0.00 0.00 96 1015.6
20260902112535 70 0 0.0 2.0 0.00 0.00 0.00 96 1015.5
20260902112037 70 350 0.0 2.0 0.00 0.00 0.00 96 1015.5
20260902111556 71 0 0.0 2.0 0.00 0.00 0.00 96 1015.5
20260902111035 71 350 1.0 1.0 0.00 0.00 0.00 96 1015.4
20260902110535 71 0 0.0 0.0 0.00 0.00 0.00 96 1015.4
20260902110108 71 0 0.0 0.0 0.00 0.00 0.00 96 1015.4
20260902105535 71 0 0.0 0.0 0.00 0.00 0.00 96 1015.4
20260902105035 71 0 0.0 0.0 0.00 0.00 0.00 96 1015.2
20260902104600 71 0 0.0 0.0 0.00 0.00 0.00 96 1015.1
20260902104035 71 0 0.0 0.0 0.00 0.00 0.00 96 1015.2
20260902103534 71 0 0.0 0.0 0.00 0.00 0.00 96 1015.2
20260902103106 71 0 0.0 0.0 0.00 0.00 0.00 96 1015.1
20260902102535 71 0 0.0 0.0 0.00 0.00 0.00 96 1015.0
20260902102035 71 0 0.0 1.0 0.00 0.00 0.00 96 1014.9
20260902101600 71 0 0.0 1.0 0.00 0.00 0.00 96 1015.0
20260902101037 71 350 0.0 2.0 0.00 0.00 0.00 96 1015.1
20260902100541 71 350 0.0 2.0 0.00 0.00 0.00 96 1015.1
20260902100100 71 0 0.0 2.0 0.00 0.00 0.00 96 1015.1
20260902095535 71 350 1.0 2.0 0.00 0.00 0.00 96 1014.9
20260902095033 71 350 0.0 2.0 0.00 0.00 0.00 96 1015.0
20260902094558 71 0 0.0 1.0 0.00 0.00 0.00 96 1015.0
20260902094034 71 0 0.0 1.0 0.00 0.00 0.00 96 1015.0
20260902093536 71 350 1.0 2.0 0.00 0.00 0.00 95 1015.1
20260902093055 71 352 1.0 2.0 0.00 0.00 0.00 96 1015.1
20260902092535 71 352 0.0 2.0 0.00 0.00 0.00 96 1015.0
20260902092036 72 0 0.0 2.0 0.00 0.00 0.00 96 1015.0
20260902091602 72 0 0.0 2.0 0.00 0.00 0.00 96 1015.0
20260902091033 71 352 0.0 2.0 0.00 0.00 0.00 96 1014.9
20260902090536 71 352 0.0 2.0 0.00 0.00 0.00 96 1014.9
20260902090101 71 352 1.0 2.0 0.00 0.00 0.00 95 1014.8
20260902085535 71 307 0.0 2.0 0.00 0.00 0.00 95 1014.7
20260902085034 71 307 0.0 2.0 0.00 0.00 0.00 95 1014.6
20260902084557 71 0 0.0 2.0 0.00 0.00 0.00 95 1014.6
20260902084034 72 307 0.0 2.0 0.00 0.00 0.00 95 1014.6
20260902083534 72 0 0.0 2.0 0.00 0.00 0.00 96 1014.7
20260902083048 72 307 0.0 2.0 0.00 0.00 0.00 96 1014.9
20260902082536 72 307 0.0 2.0 0.00 0.00 0.00 96 1015.0
20260902082035 72 0 0.0 2.0 0.00 0.00 0.00 96 1014.8
20260902081603 72 0 0.0 0.0 0.00 0.00 0.00 96 1014.8
20260902081033 72 0 0.0 2.0 0.00 0.00 0.00 96 1014.8
20260902080535 72 0 0.0 2.0 0.00 0.00 0.00 96 1014.7
20260902080058 72 307 0.0 2.0 0.00 0.00 0.00 96 1014.8
20260902075535 72 307 0.0 1.0 0.00 0.00 0.00 95 1014.8
20260902075036 72 307 0.0 1.0 0.00 0.00 0.00 96 1014.7
20260902074555 72 0 0.0 2.0 0.00 0.00 0.00 96 1014.7
20260902074035 72 0 0.0 2.0 0.00 0.00 0.00 96 1014.7
20260902073535 72 307 0.0 1.0 0.00 0.00 0.00 96 1014.7
20260902073056 72 0 0.0 2.0 0.00 0.00 0.00 96 1014.7
20260902072536 72 307 1.0 2.0 0.00 0.00 0.00 95 1014.7
20260902072035 72 245 1.0 1.0 0.00 0.00 0.00 95 1014.7
20260902071559 72 233 1.0 2.0 0.00 0.00 0.00 95 1014.7
20260902071035 72 232 0.0 2.0 0.00 0.00 0.00 95 1014.8
20260902070535 72 232 0.0 2.0 0.00 0.00 0.00 95 1014.9
20260902070109 71 232 0.0 2.0 0.00 0.00 0.00 95 1014.9
20260902065534 72 232 0.0 2.0 0.00 0.00 0.00 95 1015.0
20260902065035 72 232 1.0 1.0 0.00 0.00 0.00 95 1014.9
20260902064600 72 232 0.0 2.0 0.00 0.00 0.00 95 1014.9
20260902064035 72 232 0.0 2.0 0.00 0.00 0.00 95 1014.9
20260902063536 72 0 0.0 0.0 0.00 0.00 0.00 95 1014.9
20260902063108 72 0 0.0 0.0 0.00 0.00 0.00 95 1015.0
20260902062537 72 0 0.0 2.0 0.00 0.00 0.00 95 1015.1
20260902062034 72 0 0.0 2.0 0.00 0.00 0.00 95 1015.2
20260902061601 72 0 0.0 2.0 0.00 0.00 0.00 95 1015.1
20260902061035 72 0 0.0 2.0 0.00 0.00 0.00 95 1015.1
20260902060535 72 232 0.0 2.0 0.00 0.00 0.00 95 1015.3
20260902060127 72 0 0.0 2.0 0.00 0.00 0.00 95 1015.3
20260902055536 72 0 0.0 2.0 0.00 0.00 0.00 95 1015.2
20260902055036 72 232 0.0 1.0 0.00 0.00 0.00 95 1015.1
20260902054600 72 232 0.0 1.0 0.00 0.00 0.00 95 1015.1
20260902054036 72 232 0.0 0.0 0.00 0.00 0.00 95 1015.0
20260902053535 72 0 0.0 2.0 0.00 0.00 0.00 95 1015.2
20260902053056 72 0 0.0 2.0 0.00 0.00 0.00 95 1015.3
20260902052537 72 232 0.0 2.0 0.00 0.00 0.00 95 1015.3
20260902052035 72 0 0.0 1.0 0.00 0.00 0.00 95 1015.4
20260902051609 72 0 0.0 1.0 0.00 0.00 0.00 95 1015.4
20260902051035 72 232 0.0 1.0 0.00 0.00 0.00 95 1015.3
20260902050535 72 0 0.0 0.0 0.00 0.00 0.00 95 1015.4
20260902050101 72 0 0.0 0.0 0.00 0.00 0.00 95 1015.5
20260902045532 72 0 0.0 2.0 0.00 0.00 0.00 95 1015.5
20260902045034 72 0 0.0 2.0 0.00 0.00 0.00 95 1015.6
20260902044600 72 0 0.0 1.0 0.00 0.00 0.00 95 1015.5
20260902044036 72 0 0.0 0.0 0.00 0.00 0.00 95 1015.6
20260902043535 72 0 0.0 0.0 0.00 0.00 0.00 95 1015.5
20260902043059 73 0 0.0 0.0 0.00 0.00 0.00 95 1015.4
20260902042535 73 0 0.0 0.0 0.00 0.00 0.00 95 1015.5
20260902042033 73 0 0.0 0.0 0.00 0.00 0.00 95 1015.4
20260902041610 73 0 0.0 0.0 0.00 0.00 0.00 95 1015.5
20260902041034 73 0 0.0 1.0 0.00 0.00 0.00 95 1015.5
20260902040535 73 0 0.0 1.0 0.00 0.00 0.00 95 1015.6
20260902040104 73 232 1.0 2.0 0.00 0.00 0.00 95 1015.6
20260902035534 73 232 1.0 3.0 0.00 0.00 0.00 95 1015.7
20260902035034 73 232 1.0 3.0 0.00 0.00 0.00 95 1015.7
20260902034600 73 232 2.0 3.0 0.00 0.00 0.00 95 1015.8
20260902034033 73 315 1.0 1.0 0.00 0.00 0.00 95 1015.7
20260902033533 73 315 0.0 1.0 0.00 0.00 0.00 94 1015.8
20260902033107 73 315 1.0 2.0 0.00 0.00 0.00 94 1015.9
20260902032537 73 315 0.0 2.0 0.00 0.00 0.00 95 1016.0
20260902032035 73 0 0.0 2.0 0.00 0.00 0.00 95 1016.0
20260902031601 73 0 0.0 0.0 0.00 0.00 0.00 95 1016.0
20260902031035 73 0 0.0 0.0 0.00 0.00 0.00 95 1016.1
20260902030535 74 0 0.0 1.0 0.00 0.00 0.00 95 1016.1
20260902030057 74 0 0.0 1.0 0.00 0.00 0.00 95 1016.2
20260902025536 73 315 1.0 2.0 0.00 0.00 0.00 94 1016.2
20260902025035 74 315 0.0 2.0 0.00 0.00 0.00 95 1016.3
20260902024557 74 315 0.0 2.0 0.00 0.00 0.00 95 1016.3
20260902024035 74 0 1.0 2.0 0.00 0.00 0.00 95 1016.3
20260902023536 74 237 0.0 1.0 0.00 0.00 0.00 95 1016.3
20260902023052 74 237 1.0 1.0 0.00 0.00 0.00 95 1016.1
20260902022534 74 238 1.0 2.0 0.00 0.00 0.00 94 1016.1
20260902022034 74 237 0.0 2.0 0.00 0.00 0.00 94 1016.1
20260902021601 74 237 0.0 2.0 0.00 0.00 0.00 95 1016.2
20260902021036 74 237 0.0 0.0 0.00 0.00 0.00 95 1016.1
20260902020535 74 0 0.0 2.0 0.00 0.00 0.00 94 1016.0
20260902015534 74 0 0.0 2.0 0.00 0.00 0.00 94 1016.1
20260902015127 74 0 0.0 2.0 0.00 0.00 0.00 94 1016.1
20260902014555 74 0 0.0 2.0 0.00 0.00 0.00 94 1016.0
20260902014038 74 238 0.0 1.0 0.00 0.00 0.00 94 1015.9
20260902013537 75 237 1.0 2.0 0.00 0.00 0.00 94 1015.9
20260902013102 75 237 0.0 2.0 0.00 0.00 0.00 94 1015.8
20260902012535 75 0 0.0 2.0 0.00 0.00 0.00 94 1015.8
20260902012035 75 0 0.0 2.0 0.00 0.00 0.00 94 1015.9
20260902011557 75 0 0.0 2.0 0.00 0.00 0.00 94 1015.7
20260902011035 75 237 1.0 2.0 0.00 0.00 0.00 94 1015.6
20260902010534 75 238 1.0 2.0 0.00 0.00 0.00 94 1015.7
20260902010055 75 238 0.0 2.0 0.00 0.00 0.00 93 1015.7
20260902005534 75 0 0.0 2.0 0.00 0.00 0.00 93 1015.6
20260902005037 76 238 0.0 2.0 0.00 0.00 0.00 93 1015.5
20260902004555 76 0 0.0 1.0 0.00 0.00 0.00 93 1015.5
20260902004032 76 0 0.0 2.0 0.00 0.00 0.00 93 1015.6
20260902003534 76 238 1.0 2.0 0.00 0.00 0.00 93 1015.7
20260902003100 76 0 0.0 0.0 0.00 0.00 0.00 92 1015.6
20260902002538 76 0 0.0 1.0 0.00 0.00 0.00 92 1015.6
20260902002036 76 0 0.0 1.0 0.00 0.00 0.00 92 1015.6
20260902001559 76 238 0.0 1.0 0.00 0.00 0.00 92 1015.6
20260902001038 76 238 0.0 1.0 0.00 0.00 0.00 92 1015.6
20260902000534 77 0 0.0 2.0 0.00 0.00 0.00 92 1015.6
20260902000119 77 0 0.0 2.0 0.00 0.00 0.00 92 1015.6
20260901235535 77 0 0.0 2.0 0.00 0.00 0.00 92 1015.6
20260901235035 77 0 0.0 2.0 0.00 0.00 0.00 92 1015.7
20260901234553 77 0 0.0 2.0 0.00 0.00 0.00 92 1015.6
20260901234034 77 0 0.0 2.0 0.00 0.00 0.00 92 1015.5
20260901233535 77 0 0.0 2.0 0.00 0.00 0.00 91 1015.5
20260901233102 77 222 0.0 2.0 0.00 0.00 0.00 91 1015.5
20260901232535 77 0 0.0 2.0 0.00 0.00 0.00 91 1015.6
20260901232038 77 222 0.0 2.0 0.00 0.00 0.00 91 1015.6
20260901231602 77 0 0.0 2.0 0.00 0.00 0.00 91 1015.5
20260901231034 77 222 0.0 3.0 0.00 0.00 0.00 91 1015.5
20260901230535 78 222 2.0 3.0 0.00 0.00 0.00 91 1015.5
20260901230114 78 222 2.0 3.0 0.00 0.00 0.00 90 1015.5
20260901225535 78 213 0.0 4.0 0.00 0.00 0.00 90 1015.4
20260901225034 78 286 1.0 4.0 0.00 0.00 0.00 90 1015.3
20260901224556 78 279 2.0 3.0 0.00 0.00 0.00 89 1015.3
20260901224035 79 300 1.0 3.0 0.00 0.00 0.00 89 1015.2
20260901223535 79 300 1.0 4.0 0.00 0.00 0.00 88 1015.2
20260901223059 80 301 3.0 4.0 0.00 0.00 0.00 87 1015.2
20260901222534 81 295 1.0 3.0 0.00 0.00 0.00 85 1015.2
20260901222032 81 71 1.0 3.0 0.00 0.00 0.00 81 1015.2
20260901221610 81 45 1.0 4.0 0.00 0.00 0.00 81 1015.1
20260901221036 81 41 2.0 4.0 0.00 0.00 0.00 81 1015.0
20260901220533 81 53 2.0 4.0 0.00 0.00 0.00 82 1015.1
20260901220130 81 34 2.0 3.0 0.00 0.00 0.00 84 1015.1
20260901215534 81 0 0.0 2.0 0.00 0.00 0.00 83 1015.1
20260901215036 81 67 1.0 2.0 0.00 0.00 0.00 83 1015.1
20260901214552 81 0 0.0 2.0 0.00 0.00 0.00 85 1015.1
20260901214035 81 0 0.0 3.0 0.00 0.00 0.00 86 1015.1
20260901213535 80 67 1.0 4.0 0.00 0.00 0.00 83 1014.9
20260901213113 80 77 2.0 7.0 0.00 0.00 0.00 84 1014.8
20260901212535 80 78 3.0 7.0 0.00 0.00 0.00 84 1014.7
20260901212035 80 59 2.0 7.0 0.00 0.00 0.00 84 1014.6
20260901211603 80 80 4.0 7.0 0.00 0.00 0.00 84 1014.4
20260901211036 80 59 3.0 5.0 0.00 0.00 0.00 84 1014.5
20260901210533 80 51 2.0 4.0 0.00 0.00 0.00 85 1014.5
20260901210104 80 327 1.0 2.0 0.00 0.00 0.00 88 1014.6
20260901205536 80 296 0.0 2.0 0.00 0.00 0.00 88 1014.7
20260901205038 80 0 1.0 2.0 0.00 0.00 0.00 87 1014.7
20260901204614 80 289 1.0 4.0 0.00 0.00 0.00 86 1014.9
20260901204037 80 289 0.0 4.0 0.00 0.00 0.00 85 1015.0
20260901203536 81 289 2.0 4.0 0.00 0.00 0.00 85 1015.1
20260901203109 81 0 0.0 2.0 0.00 0.00 0.00 86 1015.2
20260901202534 81 177 1.0 2.0 0.00 0.00 0.00 85 1015.0
20260901202041 81 177 1.0 2.0 0.00 0.00 0.00 85 1014.8
20260901201558 81 177 1.0 2.0 0.00 0.00 0.00 85 1014.7
20260901201035 81 177 1.0 2.0 0.00 0.00 0.00 85 1014.7
20260901200535 81 207 1.0 3.0 0.00 0.00 0.00 85 1014.7
20260901200058 81 207 2.0 3.0 0.00 0.00 0.00 85 1014.8
20260901195535 81 182 1.0 6.0 0.00 0.00 0.00 84 1014.9
20260901195036 81 181 1.0 6.0 0.00 0.00 0.00 84 1015.0
20260901194555 81 180 3.0 7.0 0.00 0.00 0.00 84 1015.1
20260901194035 81 161 3.0 7.0 0.00 0.00 0.00 84 1015.3
20260901193535 82 144 4.0 7.0 0.00 0.00 0.00 82 1015.4
20260901193119 82 202 2.0 3.0 0.00 0.00 0.00 83 1015.4
20260901192541 82 154 2.0 4.0 0.00 0.00 0.00 83 1015.4
20260901192040 82 171 2.0 7.0 0.00 0.00 0.00 82 1015.3
20260901191556 82 173 3.0 7.0 0.00 0.00 0.00 81 1015.2
20260901191034 83 144 2.0 4.0 0.00 0.00 0.00 81 1015.2
20260901190534 83 103 2.0 4.0 0.00 0.00 0.00 80 1015.2
20260901185535 83 140 2.0 4.0 0.00 0.01 0.00 79 1015.4
20260901185035 83 138 1.0 4.0 0.00 0.01 0.00 79 1015.6
20260901184551 83 150 2.0 4.0 0.00 0.01 0.00 78 1015.6
20260901184034 83 161 1.0 4.0 0.00 0.01 0.00 79 1015.6
20260901183534 83 155 1.0 4.0 0.00 0.01 0.00 78 1015.8
20260901183101 83 108 2.0 7.0 0.00 0.01 0.00 76 1015.8
20260901182534 83 130 3.0 8.0 0.00 0.01 0.00 76 1015.7
20260901182035 84 78 4.0 8.0 0.00 0.01 0.00 75 1015.7
20260901181602 84 109 5.0 8.0 0.00 0.01 0.00 74 1015.9